Resolute CS, Nunavut

6:13 PM MDT on July 23, 2017 (GMT -0600)
Resolute CS

Weather History for CXRB - October, 2013

Change the Weather History Date:

Wednesday, October 2, 2013

  Actual Average (CYRB) Record (CYRB)
Temperature  
Mean Temperature 11 °F -  
Max Temperature 16 °F 18 °F 28 °F (1998)
Min Temperature 6 °F 11 °F 5 °F (1997)
Degree Days  
Heating Degree Days 54    
Moisture  
Dew Point 10 °F    
Average Humidity 88    
Maximum Humidity 91    
Minimum Humidity 80    
Precipitation  
Precipitation 0.00 in - - ()
Sea Level Pressure  
Sea Level Pressure 30.18 in    
Wind  
Wind Speed 14 mph ()    
Max Wind Speed 23 mph    
Max Gust Speed 31 mph    
Averages and records for this station are not official NWS values.
T = Trace of Precipitation, MM = Missing Value Source: Averaged Metar Reports

Daily Weather History Graph

Daily Weather History Graph

Search for Another Location

Airport or City:

Trip Planner

Search our weather history database for the weather conditions in past years. The results will help you decide how hot, cold, wet, or windy it might be!

Date:

Astronomy

Oct. 02, 2013 Rise Set
Actual Time 6:51 AM MDT 5:23 PM MDT
Civil Twilight 5:32 AM MDT 6:42 PM MDT
Nautical Twilight 3:54 AM MDT 8:18 PM MDT
Astronomical Twilight 1:29 AM MDT 10:35 PM MDT
Moon 2:56 AM MDT (10/2) 5:00 PM MDT (10/2)
Length of Visible Light 13h 09m
Length of Day
10h 31m
Waning Crescent, 6% of the Moon is Illuminated
Oct 2
Waning Crescent
Oct 4
New
Oct 11
First Quarter
Oct 18
Full
Oct 26
Last Quarter

Hourly Weather History & Observations

Time (MDT) Temp. Windchill Dew Point Humidity Pressure Visibility Wind Dir Wind Speed Gust Speed Precip Events Conditions
12:00 AM 8 °F - 6 °F 86% 30.13 in - North 15.0 mph - -  
12:00 AM 8.4 °F -8.6 °F 5.7 °F 89% 30.13 in - North 15.0 mph 21.9 mph N/A   Unknown
1:00 AM 9.3 °F -6.8 °F 6.8 °F 89% 30.13 in - NNW 13.8 mph 19.6 mph N/A   Unknown
2:00 AM 10.8 °F -6.7 °F 8.6 °F 91% 30.14 in - NW 17.3 mph - N/A   Unknown
3:00 AM 11.5 °F -4.1 °F 9.3 °F 91% 30.15 in - NW 13.8 mph - N/A   Unknown
4:00 AM 11.8 °F -2.3 °F 9.5 °F 90% 30.16 in - NNW 11.5 mph 18.4 mph N/A   Unknown
5:00 AM 12.0 °F -4.5 °F 9.5 °F 90% 30.16 in - NNW 16.1 mph 23.0 mph N/A   Unknown
6:00 AM 13 °F - 10 °F 83% 30.16 in - NNW 13.8 mph - -  
6:00 AM 12.9 °F -2.2 °F 10.2 °F 89% 30.16 in - NNW 13.8 mph 20.7 mph N/A   Unknown
7:00 AM 13.1 °F -3.1 °F 10.4 °F 89% 30.16 in - NNW 16.1 mph 23.0 mph N/A   Unknown
8:00 AM 13.8 °F -3.7 °F 11.1 °F 89% 30.15 in - NW 19.6 mph - N/A   Unknown
9:00 AM 14.7 °F -1.1 °F 11.8 °F 88% 30.16 in - NNW 16.1 mph 25.3 mph N/A   Unknown
10:00 AM 15.8 °F -0.2 °F 12.7 °F 88% 30.15 in - NNW 17.3 mph 26.5 mph N/A   Unknown
11:00 AM 16.3 °F -1.6 °F 13.5 °F 88% 30.15 in - North 23.0 mph 29.9 mph N/A   Unknown
12:00 PM 16.3 °F -0.4 °F 13.1 °F 87% 30.16 in - NNW 19.6 mph 31.1 mph N/A   Unknown
1:00 PM 16.3 °F -0.8 °F 13.5 °F 88% 30.17 in - NNW 20.7 mph 29.9 mph N/A   Unknown
2:00 PM 16.0 °F -2.1 °F 13.1 °F 88% 30.18 in - NNW 23.0 mph 31.1 mph N/A   Unknown
3:00 PM 16.5 °F -0.1 °F 13.6 °F 88% 30.19 in - NNW 19.6 mph 29.9 mph N/A   Unknown
4:00 PM 16.3 °F 0.5 °F 13.1 °F 87% 30.20 in - NNW 17.3 mph 24.2 mph N/A   Unknown
5:00 PM 13.8 °F -1.1 °F 10.0 °F 85% 30.22 in - NNW 13.8 mph - N/A   Unknown
6:00 PM 13 °F - 10 °F 80% 30.22 in - NNW 13.8 mph - -  
6:00 PM 12.6 °F -2.7 °F 9.7 °F 88% 30.22 in - NNW 13.8 mph 20.7 mph N/A   Unknown
7:00 PM 10.9 °F -6.5 °F 8.4 °F 90% 30.23 in - NNW 17.3 mph - N/A   Unknown
8:00 PM 11.3 °F -4.3 °F 8.8 °F 90% 30.23 in - NNW 13.8 mph - N/A   Unknown
9:00 PM 11.8 °F -4.2 °F 9.3 °F 90% 30.22 in - North 15.0 mph - N/A   Unknown
10:00 PM 11.1 °F -5.7 °F 8.4 °F 89% 30.23 in - North 16.1 mph 23.0 mph N/A   Unknown
11:00 PM 10.4 °F -6.6 °F 7.7 °F 89% 30.24 in - NNW 16.1 mph - N/A   Unknown